Weather Roundup
Issued by NWS

Home | Current Version | Previous Version | Text Only | Print | Product List | Glossary On
Versions: 1 2 3 4 5 6 7 8 9 10 11 12 13 14 15 16 17 18 19 20 21 22 23 24 25 26 27 28 29 30 31 32 33 34 35 36 37 38 39 40 41 42 43 44 45 46 47 48 49 50
000
NZUS93 KARX 230110
HRRWXR

CURRENT HOURLY OBSERVATIONS ACROSS
MUCH OF THE UPPER MISSISSIPPI VALLEY
NATIONAL WEATHER SERVICE LA CROSSE WI
800 PM CDT TUE APR 22 2014


...SOUTHEAST MINNESOTA...


CITY           SKY/WX    TMP DP  RH WIND       PRES   REMARKS
ROCHESTER      PTCLDY    49  27  42 NE8       30.05S
ROCHESTER/MAYO FAIR      53  22  29 N6        30.05R
WINONA         PTCLDY    54  27  35 NE3       30.05R
AUSTIN         CLEAR     52  30  43 CALM      30.04R
ALBERT LEA     CLEAR     54  30  40 CALM      30.05R
DODGE CENTER   PTCLDY    54  28  37 NE5       30.05R
PRESTON        PTCLDY    50  30  45 N6        30.04S
OWATONNA       CLEAR     52  28  40 NE5       30.05R
FARIBAULT      CLEAR     55  23  28 NE6       30.05R
$$

...ELSEWHERE IN MINNESOTA...


CITY           SKY/WX    TMP DP  RH WIND       PRES   REMARKS
MINNEAPOLIS    PTCLDY    53  25  33 NE7       30.05S
INTNL FALLS    CLEAR     47  19  33 E3        30.05F
DULUTH         CLEAR     48  17  29 NE5       30.04S
RED WING       CLEAR     54  21  28 CALM      30.05R
REDWOOD FALLS  MOCLDY    57  32  38 E13       30.01F
MANKATO        CLEAR     55  28  35 NE6       30.05S
WORTHINGTON    CLOUDY    59  28  31 E10       30.01F
FAIRMONT       PTCLDY    55  32  41 E7        30.04R
$$

...SOUTHWEST WISCONSIN...


CITY           SKY/WX    TMP DP  RH WIND       PRES   REMARKS
LA CROSSE      CLEAR     52  23  32 N6        30.03S
PRAIRIE DU CHI CLEAR     55  24  30 N5        30.02R
BOSCOBEL       CLEAR     55  21  26 N7        30.03R
LONE ROCK      CLEAR     51  26  37 N7        30.02R
PLATTEVILLE    CLEAR     49  27  42 N5        30.02R
FORT MC COY    CLEAR     50  21  32 NE6       30.05R
CAMP DOUGLAS   PTCLDY    50  25  37 CALM      30.03S
VIROQUA        FAIR      48  26  42 N6        30.03S
WIS DELLS      PTCLDY    49  23  36 N7        30.03R
$$

...ELSEWHERE IN WISCONSIN...


CITY           SKY/WX    TMP DP  RH WIND       PRES   REMARKS
MILWAUKEE      PTCLDY    40  29  64 NE9       30.04R WCI  34
MADISON        PTCLDY    50  26  39 N7        30.01R
GREEN BAY      CLEAR     43  29  57 N13       30.05R
EAU CLAIRE     CLEAR     49  23  36 NE5       30.04S
BLACK RVR FLS  FAIR      51  20  29 NE6       30.04R
MEDFORD        CLEAR     42  26  51 N6        30.05R
WAUSAU         CLEAR     45  24  43 N9        30.03S
WIS RAPIDS     CLEAR     47  24  40 N9        30.05R
MARSHFIELD     CLEAR     46  23  40 N9        30.04S
RICE LAKE      CLEAR     46  26  47 N6        30.07R
$$

...NORTHEAST IOWA...


CITY           SKY/WX    TMP DP  RH WIND       PRES   REMARKS
WATERLOO       CLEAR     51  34  52 N6        30.03S
DUBUQUE        CLEAR     50  25  37 N6        30.01S
DECORAH        CLEAR     52  25  35 N8        30.02S
MASON CITY     CLEAR     50  37  61 NE8       30.05S
CHARLES CITY   CLEAR     52  37  58 W6        30.05R
OELWEIN        CLEAR    N/A N/A N/A N7        30.03S
$$

...ELSEWHERE IN IOWA...


CITY           SKY/WX    TMP DP  RH WIND       PRES   REMARKS
DES MOINES     PTCLDY    62  30  29 E10       30.01F
IOWA CITY      CLEAR     58  30  34 N7        30.03R
FORT DODGE     CLOUDY    57  36  44 E6        30.03S
MARSHALLTOWN   CLEAR     55  33  43 N7        30.03S
CEDAR RAPIDS   CLEAR     54  31  41 NW7       30.01S
$$

...NORTHERN ILLINOIS...


CITY           SKY/WX    TMP DP  RH WIND       PRES   REMARKS
CHICAGO-OHARE  PTCLDY    44  26  49 NE12      30.03R
DUPAGE         CLEAR     45  29  53 NE14      30.01R
CHICAGO-MIDWAY PTCLDY    44  29  55 E12       30.03R
MOLINE         CLEAR     57  25  29 N7        29.99
ROCKFORD       PTCLDY    53  25  33 N10       30.02R
STERLING       CLEAR     54  30  40 N7        30.00R
PEORIA         CLEAR     60  25  26 N5        29.99R
$$

NOTE: "FAIR" INDICATES FEW OR NO CLOUDS BELOW 12,000 FEET WITH NO
SIGNIFICANT WEATHER AND/OR OBSTRUCTIONS TO VISIBILITY. WIND
SPEEDS ARE IN MILES-PER-HOUR.



USA.gov is the U.S. government's official web portal to all federal, state and local government web resources and services.